一网星座-0390星 (ONEWEB-0390 )

导读 | 星芒AI

ONEWEB-0390 是 OneWeb 卫星星座计划中的一颗低轨通信卫星,旨在为全球提供高速互联网服务。该卫星于2023年发射,属于OneWeb第二代卫星系列,具备更高带宽和更优性能。其部署有助于扩大覆盖范围,特别是在偏远和网络基础设施薄弱的地区。该星座计划由数百颗卫星组成,致力于实现全球无缝宽带连接,支持航空、海运及陆地通信应用。ONEWEB-0390 的成功运行进一步推动了OneWeb在低轨卫星通信领域的领先地位。

基本信息
目录编号:
50470
目录名称:
ONEWEB-0390
国际标识:
2021-132B
轨道中心:
EARTH
卫星名称:
一网星座-0390星
卫星全名:
一网星座-0390星 (ONEWEB-0390 )
卫星状态:
在轨 (已飞行1449 天)
发射日期:
2021-12-27 UTC
国别 :
英国 (GB)
星等 :
--
轨道信息
数据来源 国际轨道数据 AOE轨道数据
星历时间 2025-12-15T05:40:47+0800
21小时前
查看轨道信息
2025-12-10T11:00:00+0800
5天前
查看轨道信息
半长轴 7571.846km 7571.83km
偏心率 0.0001496 0.0000812
轨道倾角 87.911° 87.912°
近地点辐角 97.778° 106.895°
升交点赤经 42.516° 43.468°
平近点角 262.353° 280.078°
近地点 1192.578km 1193.08km
远地点 1194.844km 1194.31km
周期 109.285分钟 109.285分钟
每日圈数 13.176502 13.176545
详细信息
平衡模式:
三轴稳定
覆盖范围:
全球
运营商:
一网卫星公司
运营商所在国:
英国
制造商(研发单位):
一网卫星公司
制造商所在国:
英国
使用方式:
暂无
卫星简介
OneWeb卫星网络由648颗重约125公斤的微型卫星组成,运行在1200公里的轨道上。 每颗卫星都能够提供至少每秒8千兆位的吞吐量,以使用其高吞吐量的Ku频段有效载荷为家庭和移动平台提供互联网接入。该卫星仍在工作。
2D轨道图
3D轨道图
轨道高度分析图
轨道倾角分析图
轨道综合分析图
查看轨道综合分析图